World > North America > United States > Minnesota > Pencer

Hourly Pencer, MN Regional Weather

Feedback E-mail the Weather

Quick WX

Pencer, MN Weather Maps

°F °C°F °C
Pencer Weather Map
UTC Time: 8/11/2022, 15:19
Your Time:

Pencer, MN Regional Weather

Expires:202208111600;;915944
ASUS43 KMPX 111510
RWRMN 
WEATHER ROUNDUP FOR MINNESOTA
NATIONAL WEATHER SERVICE TWIN CITIES/CHANHASSEN MN
1000 AM CDT THU AUG 11 2022


NOTE: "FAIR" INDICATES FEW OR NO CLOUDS BELOW 12,000 FEET WITH NO
SIGNIFICANT WEATHER AND/OR OBSTRUCTIONS TO VISIBILITY. N/A MEANS
CURRENT SKY AND/OR WEATHER CONDITIONS ARE NOT AVAILABLE.


MNZ001>005-007-008-013>017-022>024-027-028-111600-
   Northwest Minnesota   
  
CITY           SKY/WX    TMP DP  RH WIND       PRES   REMARKS
BEMIDJI        SUNNY     67  53  59 SE6       30.29S                  
HALLOCK        MOSUNNY   70  61  73 SE8       30.26S                  
ROSEAU           N/A     68  55  64 SE9       30.29S                  
WARROAD        MOSUNNY   68  57  68 E8        30.30S                  
THIEF RVR FALL MOSUNNY   68  55  63 SE9       30.28S                  
CROOKSTON      MOSUNNY   72  54  53 SE10      30.25F                  
FOSSTON        MOSUNNY   68  54  60 E6        30.28S                  
DETROIT LAKES  SUNNY     72  52  49 SE13      30.26S                  
MOORHEAD       MOSUNNY   72  57  60 SE8       30.23F                  
PARK RAPIDS    SUNNY     70  52  52 VRB7      30.27F                  
MAHNOMEN       FAIR      69  53  56 SE8       30.26S                  
$$

SKY/WX - Weather  TMP - Temperature  DP - Dew Point  RH - Humidity
WIND - Wind Direction/Speed PRES - Barometric Pressure VSB - Visibility
WCI - Wind Chill Index E13G22 Wind - East Wind 13 mph/Gusts of 22 mph

Trending Headlines

Pencer Radar Loop



Pencer Quick Facts


National Two Day Weather Forecast


E-mail the Pencer Weather Forecast

Voice your opinion or tell us about page issues...